Location: Cazavet
(43.0017°N, 1.0431°E)
Time: 21:47:46
(UTC+00:00)

Cosmos 1656 Rocket - Pass Details

Date: 18 January 2026
Orbit: 794 x 844 km, 71.1° (Epoch: 10 February)

Event Time Altitude Azimuth Distance (km) Brightness Sun altitude
Rises 05:56:06 0° 196° (SSW) 3,385 6.8 -15.6°
Reaches altitude 10° 05:58:33 10° 195° (SSW) 2,455 6.1 -15.2°
Maximum altitude 06:04:10 73° 112° (ESE) 881 4.0 -14.2°
Drops below altitude 10° 06:09:48 10° 28° (NNE) 2,461 6.3 -13.2°
Sets 06:12:15 0° 27° (NNE) 3,394 7.0 -12.8°
